Home > Weather > Hampton > Past weeks

Flag for USA Weather for the Past 2 Weeks in Hampton, Virginia, USA

Now
60 °F

Low clouds.


Feels Like: 60 °F
Forecast: 61 / 68 °F
Wind: 6 mph from East

Location: Langley Air Force Base

Current Time: May 4, 2016 at 1:15:30 AM

Latest Report: May 3, 2016 at 11:58 PM


Visibility: 9 mi

Pressure: 29.75 "Hg

Humidity: 96%

Dew Point: 59 °F

Location of HamptonLocation

Historic Weather in Hampton — Graph

°F

Hampton Temperature Yesterday

Maximum temperature yesterday: 76 °F (at 5:58 PM)
Minimum temperature yesterday: 63 °F (at 9:04 PM)
Average temperature yesterday: 68 °F

High & Low Weather Summary for the Past Weeks

 TemperatureHumidityPressure
High85 °F (May 2, 3:58 PM)100% (Apr 23, 5:03 AM)30.32 "Hg (Apr 23, 5:03 AM)
Low44 °F (Apr 21, 4:58 AM)23% (Apr 19, 11:58 AM)29.73 "Hg (May 3, 7:58 PM)
Average63 °F76%30.00 "Hg
* Reported Apr 18 11:58 PM — May 3 11:03 PM, Hampton, Weather by CustomWeather, © 2016

Note: Actual official high and low records may vary slightly from our data, if they occured in-between our weather recording intervals... More about our weather records

Advertising

Hampton Weather History for the Previous 24 Hours

Scroll right to see more
 ConditionsComfort  
Time TempWeatherWind HumidityBarometerVisibility
11:03 PM
Tue, May 3
63 °FLow clouds.3 mph94%29.75 "Hg10 mi
10:03 PM63 °FMostly cloudy.3 mph94%29.75 "Hg10 mi
9:04 PM63 °FThunderstorms. Fog.8 mph94%29.75 "Hg4 mi
8:58 PM63 °FThunderstorms. Fog.9 mph94%29.77 "Hg2 mi
7:58 PM69 °FSunny.7 mph86%29.73 "Hg10 mi
6:58 PM73 °FSunny.6 mph75%29.74 "Hg6 mi
5:58 PM76 °FPassing clouds.8 mph72%29.74 "Hg10 mi
4:58 PM73 °FPassing clouds.6 mph75%29.74 "Hg10 mi
3:58 PM72 °FCloudy.8 mph78%29.76 "Hg10 mi
2:58 PM72 °FMostly cloudy.10 mph81%29.78 "Hg10 mi
1:58 PM70 °FMore clouds than sun.12 mph86%29.79 "Hg10 mi
1:03 PM70 °FMostly cloudy.15 mph88%29.78 "Hg10 mi
12:58 PM69 °FMostly cloudy.14 mph87%29.80 "Hg10 mi
11:58 AM70 °FOvercast.10 mph88%29.81 "Hg10 mi
11:03 AM66 °FFog.10 mph94%29.81 "Hg4 mi
10:58 AM66 °FFog.9 mph94%29.83 "Hg6 mi
9:58 AM66 °FLight rain. Fog.9 mph97%29.83 "Hg5 mi
8:58 AM66 °FLight rain. Fog.12 mph97%29.83 "Hg3 mi
7:54 AM66 °FLight rain. Fog.9 mph94%29.79 "Hg4 mi
6:58 AM66 °FFog.8 mph96%29.82 "Hg1 mi
6:04 AM66 °FFog.8 mph94%29.81 "Hg2 mi
5:58 AM66 °FLight rain. Fog.9 mph94%29.83 "Hg1 mi
5:03 AM68 °FLight rain. Fog.7 mph88%29.82 "Hg1 mi
4:58 AM68 °FLight rain. Fog.7 mph88%29.84 "Hg2 mi
4:02 AM68 °FFog.6 mph94%29.82 "Hg2 mi
3:56 AM68 °FLight rain. Fog.6 mph94%29.83 "Hg2 mi
3:03 AM68 °FFog.7 mph94%29.84 "Hg3 mi
1:58 AM68 °FFog.2 mph92%29.88 "Hg2 mi
Weather by CustomWeather, © 2016

See weather overviewHow to use our weather pages